Weather History for Bay City, TX

Change the Weather History Date:

Saturday, March 22, 2014

  Actual Average (KLBX) Record (KLBX)
Temperature  
Mean Temperature 72 °F -  
Max Temperature 78 °F 70 °F 80 °F (2013)
Min Temperature 67 °F 53 °F 44 °F (1999)
Cooling Degree Days 8    
Growing Degree Days 22 (Base 50)    
Moisture  
Dew Point 69 °F    
Average Humidity 93    
Maximum Humidity 99    
Minimum Humidity 80    
Precipitation  
Precipitation 0.00 in - - ()
Sea Level Pressure  
Sea Level Pressure 29.96 in    
Wind  
Wind Speed 5 mph (SE)    
Max Wind Speed 10 mph    
Max Gust Speed -    
Visibility 7 miles    
Events Fog    
Averages and records for this station are not official NWS values.
T = Trace of Precipitation, MM = Missing Value Source: NWS Daily Summary

Daily Weather History Graph

Daily Weather History Graph

Search for Another Location

Airport:

Trip Planner

Search our weather history database for the weather conditions in past years. The results will help you decide how hot, cold, wet, or windy it might be!

Date:

Astronomy

Mar. 22, 2014 Rise Set
Actual Time 7:24 AM CDT 7:36 PM CDT
Civil Twilight 7:01 AM CDT 7:59 PM CDT
Nautical Twilight 6:33 AM CDT 8:27 PM CDT
Astronomical Twilight 6:05 AM CDT 8:55 PM CDT
Moon 12:34 AM CDT (3/22) 11:31 AM CDT (3/22)
Length of Visible Light 12h 58m
Length of Day
12h 11m
Waning Gibbous, 65% of the Moon is Illuminated
Mar 22
Waning Gibbous
Mar 23
Last Quarter
Mar 30
New
Apr 7
First Quarter
Apr 15
Full

Hourly Weather History & Observations

Time (CDT) Temp. Dew Point Humidity Pressure Visibility Wind Dir Wind Speed Gust Speed Precip Events Conditions
12:15 AM 69.3 °F 67.1 °F 93% 29.96 in 10.0 mi SE 6.9 mph - N/A   Overcast
12:35 AM 69.3 °F 67.3 °F 93% 29.95 in 10.0 mi SE 6.9 mph - N/A   Overcast
12:55 AM 69.3 °F 67.3 °F 93% 29.95 in 10.0 mi SE 5.8 mph - N/A   Overcast
1:15 AM 69.6 °F 67.5 °F 93% 29.95 in 10.0 mi SE 5.8 mph - N/A   Overcast
1:35 AM 69.6 °F 67.5 °F 93% 29.95 in 10.0 mi SE 5.8 mph - N/A   Overcast
1:55 AM 69.6 °F 67.6 °F 93% 29.94 in 10.0 mi SE 5.8 mph - N/A   Overcast
2:15 AM 69.1 °F 67.3 °F 94% 29.94 in 7.0 mi SSE 4.6 mph - N/A   Overcast
2:35 AM 68.2 °F 66.7 °F 95% 29.92 in 7.0 mi SSE 4.6 mph - N/A   Mostly Cloudy
2:55 AM 67.3 °F 66.2 °F 96% 29.92 in 5.0 mi SSE 4.6 mph - N/A   Overcast
3:15 AM 67.3 °F 66.4 °F 97% 29.92 in 5.0 mi SE 3.5 mph - N/A   Overcast
3:35 AM 67.6 °F 66.7 °F 97% 29.92 in 5.0 mi Calm Calm - N/A   Overcast
3:55 AM 68.0 °F 67.1 °F 97% 29.92 in 7.0 mi Calm Calm - N/A   Overcast
4:15 AM 68.2 °F 67.3 °F 97% 29.92 in 7.0 mi SE 3.5 mph - N/A   Overcast
4:35 AM 68.5 °F 67.6 °F 97% 29.91 in 7.0 mi SE 3.5 mph - N/A   Overcast
4:55 AM 68.9 °F 68.0 °F 97% 29.91 in 7.0 mi SE 4.6 mph - N/A   Overcast
5:15 AM 69.1 °F 68.0 °F 96% 29.92 in 7.0 mi SSE 4.6 mph - N/A   Overcast
5:35 AM 69.3 °F 68.2 °F 96% 29.92 in 5.0 mi SSE 4.6 mph - N/A   Overcast
5:55 AM 69.1 °F 68.2 °F 97% 29.93 in 3.0 mi SSE 3.5 mph - N/A   Overcast
6:15 AM 69.1 °F 68.4 °F 98% 29.93 in 1.2 mi SE 3.5 mph - N/A   Overcast
6:35 AM 69.1 °F 68.4 °F 98% 29.94 in 0.5 mi SE 3.5 mph - N/A Fog Fog
6:55 AM 69.1 °F 68.7 °F 99% 29.95 in 0.5 mi Calm Calm - N/A Fog Fog
7:15 AM 69.3 °F 68.9 °F 99% 29.94 in 0.5 mi SE 4.6 mph - N/A Fog Fog
7:35 AM 69.4 °F 68.9 °F 98% 29.95 in 0.5 mi SE 4.6 mph - N/A Fog Fog
7:55 AM 69.8 °F 69.1 °F 98% 29.95 in 0.5 mi SSE 3.5 mph - N/A Fog Fog
8:15 AM 69.8 °F 69.3 °F 98% 29.95 in 0.2 mi SSE 4.6 mph - N/A Fog Fog
8:35 AM 69.8 °F 69.4 °F 99% 29.96 in 0.2 mi SSE 4.6 mph - N/A Fog Fog
8:55 AM 70.2 °F 69.6 °F 98% 29.97 in 0.2 mi SSE 4.6 mph - N/A Fog Fog
9:15 AM 70.3 °F 70.0 °F 99% 29.97 in 0.5 mi SSE 5.8 mph - N/A Fog Fog
9:35 AM 70.5 °F 70.0 °F 98% 29.98 in 0.5 mi SSE 4.6 mph - N/A Fog Fog
9:55 AM 70.7 °F 70.2 °F 98% 29.98 in 2.5 mi SSE 5.8 mph - N/A   Overcast
10:15 AM 71.1 °F 70.7 °F 99% 30.00 in 7.0 mi SSE 3.5 mph - N/A   Overcast
10:35 AM 71.6 °F 71.1 °F 98% 30.00 in 10.0 mi SSE 3.5 mph - N/A   Overcast
10:55 AM 72.1 °F 71.1 °F 96% 30.01 in 10.0 mi SSE 4.6 mph - N/A   Overcast
11:15 AM 72.9 °F 71.1 °F 94% 30.01 in 10.0 mi Calm Calm - N/A   Overcast
11:35 AM 73.6 °F 71.2 °F 92% 30.00 in 10.0 mi SSE 4.6 mph - N/A   Overcast
11:55 AM 74.5 °F 71.4 °F 90% 30.00 in 10.0 mi SSE 4.6 mph - N/A   Overcast
12:15 PM 75.9 °F 71.8 °F 87% 29.99 in 10.0 mi ESE 3.5 mph - N/A   Overcast
12:35 PM 76.1 °F 72.0 °F 87% 29.99 in 10.0 mi SSE 5.8 mph - N/A   Overcast
12:55 PM 77.4 °F 72.0 °F 83% 29.99 in 10.0 mi South 5.8 mph - N/A   Overcast
1:15 PM 78.1 °F 72.1 °F 82% 29.98 in 10.0 mi SSE 5.8 mph - N/A   Overcast
1:35 PM 78.6 °F 72.0 °F 80% 29.98 in 10.0 mi South 9.2 mph - N/A   Overcast
1:55 PM 78.3 °F 71.8 °F 80% 29.97 in 10.0 mi SSE 8.1 mph - N/A   Overcast
2:15 PM 77.5 °F 71.8 °F 82% 29.96 in 10.0 mi SSE 10.4 mph - N/A   Overcast
2:35 PM 76.8 °F 71.6 °F 84% 29.96 in 10.0 mi South 6.9 mph - N/A   Overcast
2:55 PM 76.3 °F 71.6 °F 85% 29.96 in 10.0 mi SSE 6.9 mph - N/A   Overcast
3:15 PM 76.1 °F 71.6 °F 86% 29.96 in 10.0 mi SSE 6.9 mph - N/A   Overcast
3:35 PM 75.9 °F 71.4 °F 86% 29.95 in 10.0 mi South 8.1 mph - N/A   Overcast
3:55 PM 76.1 °F 71.2 °F 85% 29.95 in 10.0 mi South 9.2 mph - N/A   Overcast
4:15 PM 76.1 °F 71.1 °F 84% 29.94 in 10.0 mi South 6.9 mph - N/A   Overcast
4:35 PM 75.7 °F 70.9 °F 85% 29.94 in 10.0 mi SSE 10.4 mph - N/A   Overcast
4:55 PM 74.8 °F 70.7 °F 87% 29.93 in 10.0 mi SSE 9.2 mph - N/A   Overcast
5:15 PM 74.8 °F 70.5 °F 86% 29.94 in 10.0 mi SSE 8.1 mph - N/A   Overcast
5:35 PM 75.0 °F 70.7 °F 86% 29.93 in 10.0 mi SSE 8.1 mph - N/A   Overcast
5:55 PM 74.8 °F 70.7 °F 87% 29.93 in 10.0 mi SSE 8.1 mph - N/A   Overcast
6:15 PM 74.5 °F 70.3 °F 87% 29.94 in 10.0 mi SSE 6.9 mph - N/A   Overcast
6:35 PM 74.3 °F 70.2 °F 87% 29.94 in 10.0 mi SSE 5.8 mph - N/A   Overcast
6:55 PM 73.9 °F 70.0 °F 87% 29.95 in 10.0 mi SSE 4.6 mph - N/A   Overcast
7:15 PM 73.6 °F 70.0 °F 88% 29.95 in 10.0 mi SSE 3.5 mph - N/A   Overcast
7:35 PM 73.2 °F 69.8 °F 89% 29.95 in 10.0 mi SSE 4.6 mph - N/A   Overcast
7:55 PM 72.7 °F 69.8 °F 91% 29.95 in 10.0 mi SSE 3.5 mph - N/A   Overcast
8:15 PM 72.3 °F 69.4 °F 91% 29.96 in 10.0 mi SSE 3.5 mph - N/A   Overcast
8:35 PM 71.2 °F 68.9 °F 92% 29.96 in 7.0 mi SSE 3.5 mph - N/A   Scattered Clouds
8:55 PM 69.3 °F 67.6 °F 95% 29.97 in 7.0 mi ESE 4.6 mph - N/A   Clear
9:15 PM 68.2 °F 67.1 °F 96% 29.97 in 5.0 mi ESE 4.6 mph - N/A   Clear
9:35 PM 68.0 °F 67.1 °F 97% 29.97 in 5.0 mi Calm Calm - N/A   Scattered Clouds
9:55 PM 68.4 °F 67.6 °F 98% 29.98 in 4.0 mi ESE 4.6 mph - N/A   Mostly Cloudy
10:15 PM 68.5 °F 67.8 °F 98% 29.98 in 4.0 mi ESE 4.6 mph - N/A   Scattered Clouds
10:35 PM 67.6 °F 66.9 °F 98% 29.98 in 2.5 mi ESE 4.6 mph - N/A   Mostly Cloudy
10:55 PM 67.8 °F 67.3 °F 98% 29.99 in 0.2 mi East 4.6 mph - N/A Fog Fog
11:15 PM 68.2 °F 67.6 °F 98% 30.00 in 0.2 mi ENE 3.5 mph - N/A Fog Fog
11:35 PM 68.2 °F 67.6 °F 98% 30.00 in 0.2 mi East 4.6 mph - N/A Fog Fog
11:55 PM 68.0 °F 67.5 °F 98% 30.00 in 0.2 mi ENE 3.5 mph - N/A Fog Fog